TimeGMT,TemperatureF,Dew PointF,Humidity,Sea Level PressureIn,VisibilityMPH,Wind Direction,Wind SpeedMPH,Gust SpeedMPH,PrecipitationIn,Events,Conditions,WindDirDegrees,DateUTC
12:20 AM,48.2,41.0,76,29.74,6.2,WSW,16.1,-,N/A,,Partly Cloudy,250,2011-11-25 00:20:00
12:50 AM,48.2,37.4,66,29.74,6.2,West,18.4,-,N/A,Rain,Light Rain,260,2011-11-25 00:50:00
1:20 AM,44.6,39.2,81,29.77,6.2,WSW,11.5,-,N/A,,Partly Cloudy,250,2011-11-25 01:20:00
1:50 AM,42.8,37.4,81,29.77,6.2,WSW,10.4,-,N/A,,Partly Cloudy,240,2011-11-25 01:50:00
2:20 AM,42.8,37.4,81,29.77,-9999.0,WSW,13.8,-,N/A,,Clear,240,2011-11-25 02:20:00
2:50 AM,44.6,39.2,81,29.77,6.2,SW,15.0,-,N/A,Rain,Light Rain,230,2011-11-25 02:50:00
3:20 AM,41.0,37.4,87,29.83,6.2,West,19.6,-,N/A,Rain,Light Rain,260,2011-11-25 03:20:00
3:50 AM,41.0,37.4,87,29.83,6.2,West,13.8,-,N/A,Rain,Light Rain,270,2011-11-25 03:50:00
4:20 AM,41.0,35.6,81,29.83,6.2,WSW,8.1,-,N/A,,Partly Cloudy,250,2011-11-25 04:20:00
4:50 AM,39.2,35.6,87,29.83,6.2,WSW,4.6,-,N/A,,Mostly Cloudy,250,2011-11-25 04:50:00
5:20 AM,41.0,37.4,87,29.83,6.2,SW,6.9,-,N/A,Rain,Light Rain,230,2011-11-25 05:20:00
5:50 AM,41.0,37.4,87,29.83,6.2,Variable,3.5,-,N/A,,Mostly Cloudy,0,2011-11-25 05:50:00
6:20 AM,41.0,37.4,87,29.83,5.6,WSW,6.9,-,N/A,Rain,Light Rain,240,2011-11-25 06:20:00
6:50 AM,41.0,37.4,87,29.83,6.2,WSW,11.5,-,N/A,,Scattered Clouds,240,2011-11-25 06:50:00
7:20 AM,42.8,37.4,81,29.83,6.2,SW,23.0,-,N/A,,Scattered Clouds,220,2011-11-25 07:20:00
7:50 AM,42.8,37.4,81,29.80,6.2,SW,18.4,-,N/A,,Scattered Clouds,230,2011-11-25 07:50:00
8:20 AM,42.8,39.2,87,29.80,3.1,WSW,19.6,34.5,N/A,Rain,Rain,240,2011-11-25 08:20:00
8:50 AM,41.0,37.4,87,29.80,6.2,SW,27.6,39.1,N/A,Rain,Light Rain,230,2011-11-25 08:50:00
9:20 AM,42.8,37.4,81,29.80,4.3,WSW,26.5,-,N/A,Rain,Light Rain,240,2011-11-25 09:20:00
9:50 AM,42.8,39.2,87,29.80,6.2,SW,21.9,-,N/A,Rain,Light Rain,230,2011-11-25 09:50:00
10:20 AM,41.0,35.6,81,29.83,3.1,WSW,26.5,43.7,N/A,Rain,Rain,250,2011-11-25 10:20:00
10:50 AM,41.0,35.6,81,29.83,6.2,WSW,21.9,-,N/A,,Mostly Cloudy,250,2011-11-25 10:50:00
11:20 AM,41.0,37.4,87,29.86,6.2,West,16.1,-,N/A,,Mostly Cloudy,270,2011-11-25 11:20:00
11:50 AM,42.8,37.4,81,29.86,6.2,West,21.9,33.4,N/A,Rain,Rain,270,2011-11-25 11:50:00
12:20 PM,41.0,37.4,87,29.89,6.2,West,15.0,-,N/A,,Scattered Clouds,260,2011-11-25 12:20:00
12:50 PM,42.8,37.4,81,29.89,6.2,WSW,18.4,-,N/A,,Scattered Clouds,250,2011-11-25 12:50:00
1:20 PM,44.6,37.4,76,29.89,6.2,West,20.7,32.2,N/A,,Scattered Clouds,260,2011-11-25 13:20:00
1:50 PM,44.6,35.6,71,29.92,6.2,West,18.4,-,N/A,Rain,Light Rain,260,2011-11-25 13:50:00
2:20 PM,44.6,37.4,76,29.92,6.2,West,17.3,-,N/A,,Scattered Clouds,260,2011-11-25 14:20:00
2:50 PM,42.8,35.6,76,29.95,6.2,West,18.4,-,N/A,,Scattered Clouds,260,2011-11-25 14:50:00
3:20 PM,42.8,35.6,76,29.98,6.2,West,20.7,-,N/A,Rain,Light Rain,260,2011-11-25 15:20:00
3:50 PM,41.0,33.8,76,29.98,6.2,West,16.1,-,N/A,,Scattered Clouds,270,2011-11-25 15:50:00
4:20 PM,41.0,35.6,81,30.01,6.2,WSW,16.1,-,N/A,,Scattered Clouds,250,2011-11-25 16:20:00
4:50 PM,41.0,35.6,81,30.01,6.2,West,12.7,-,N/A,Rain,Rain,260,2011-11-25 16:50:00
5:20 PM,41.0,35.6,81,30.04,6.2,WSW,12.7,-,N/A,,Partly Cloudy,250,2011-11-25 17:20:00
5:50 PM,41.0,35.6,81,30.04,6.2,WSW,13.8,-,N/A,,Scattered Clouds,250,2011-11-25 17:50:00
6:20 PM,41.0,35.6,81,30.04,6.2,WSW,11.5,-,N/A,,Scattered Clouds,250,2011-11-25 18:20:00
6:50 PM,41.0,35.6,81,30.04,6.2,SW,10.4,-,N/A,,Scattered Clouds,230,2011-11-25 18:50:00
7:20 PM,41.0,37.4,87,30.06,6.2,WSW,9.2,-,N/A,,Mostly Cloudy,240,2011-11-25 19:20:00
7:50 PM,42.8,35.6,76,30.06,6.2,West,15.0,-,N/A,Rain,Light Rain,260,2011-11-25 19:50:00
8:20 PM,41.0,37.4,87,30.06,6.2,West,12.7,-,N/A,Rain,Light Rain,260,2011-11-25 20:20:00
8:50 PM,39.2,37.4,93,30.06,6.2,WSW,9.2,-,N/A,,Scattered Clouds,240,2011-11-25 20:50:00
9:20 PM,42.8,39.2,87,30.06,-9999.0,SW,17.3,-,N/A,Rain,Rain,220,2011-11-25 21:20:00
9:50 PM,42.8,41.0,93,30.06,6.2,WSW,15.0,-,N/A,,Mostly Cloudy,240,2011-11-25 21:50:00
10:20 PM,42.8,39.2,87,30.04,6.2,SW,20.7,-,N/A,,Mostly Cloudy,230,2011-11-25 22:20:00
10:50 PM,44.6,39.2,81,30.04,5.6,WSW,19.6,-,N/A,Rain,Light Rain,240,2011-11-25 22:50:00
11:20 PM,44.6,41.0,87,30.04,5.6,WSW,21.9,-,N/A,Rain,Light Rain,240,2011-11-25 23:20:00
11:50 PM,44.6,41.0,87,30.01,6.2,WSW,21.9,-,N/A,Rain,Light Rain,240,2011-11-25 23:50:00